カタログに戻る

FENGYUN 1C DEB

運用中SSO
NORAD 30660·DEBRIS·🇨🇳 China

打ち上げ May 10, 1999 から Taiyuan Satellite Launch Center

Loading…

次のパス (今後24時間)

TLE

最新Source: Space-Track

元期: Sep 14, 2026, 06:49 UTC

1 30660U 99025APS 26257.28468087  .00005863  00000-0  50558-3 0  9993
2 30660  98.1472   6.8407 0129300 151.2373 237.4483 14.91407040 48878

AllMySatでFENGYUN 1C DEBをリアルタイム追跡

Download on the App Store